This is the latest recevied weather packets stored in our database for station/object KK4WXG. If no packets are shown the sender has not sent any weather packets the latest 10 day(s).
| Time | Temp. | Humidity | Pressure | Rain* | Wind** | Luminosity | Snow |
|---|---|---|---|---|---|---|---|
| 1777900656 | 16.11° C | 44% | 1013.4 hPa | 0 mm | - | 527 W/m² | - |
| 1777900353 | 15.56° C | 45% | 1013.3 hPa | 0 mm | - | 509 W/m² | - |
| 1777900050 | 15.56° C | 45% | 1013.6 hPa | 0 mm | - | 490 W/m² | - |
| 1777899746 | 15.56° C | 46% | 1013.5 hPa | 0 mm | - | 471 W/m² | - |
| 1777899444 | 15° C | 48% | 1013.6 hPa | 0 mm | - | 448 W/m² | - |
| 1777899141 | 15° C | 49% | 1013.6 hPa | 0 mm | - | 430 W/m² | - |
| 1777898839 | 15° C | 47% | 1013.7 hPa | 0 mm | - | 409 W/m² | - |
| 1777898536 | 14.44° C | 51% | 1013.6 hPa | 0 mm | - | 391 W/m² | - |
| 1777898234 | 14.44° C | 52% | 1013.8 hPa | 0 mm | - | 369 W/m² | - |
| 1777897931 | 13.33° C | 57% | 1013.8 hPa | 0 mm | - | 353 W/m² | - |
| 1777897626 | 12.78° C | 60% | 1013.8 hPa | 0 mm | - | 335 W/m² | - |
| 1777897322 | 11.67° C | 62% | 1013.8 hPa | 0 mm | - | 317 W/m² | - |
| 1777897018 | 11.11° C | 63% | 1014 hPa | 0 mm | - | 294 W/m² | - |
| 1777896716 | 10.56° C | 63% | 1013.9 hPa | 0 mm | - | 284 W/m² | - |
| 1777896413 | 10.56° C | 63% | 1013.9 hPa | 0 mm | - | 261 W/m² | - |
| 1777896110 | 10.56° C | 66% | 1013.9 hPa | 0 mm | - | 242 W/m² | - |
| 1777895808 | 10.56° C | 63% | 1013.9 hPa | 0 mm | - | 215 W/m² | - |
| 1777895505 | 10° C | 68% | 1014 hPa | 0 mm | - | 201 W/m² | - |
| 1777895203 | 10° C | 66% | 1013.8 hPa | 0 mm | - | 179 W/m² | - |
| 1777894900 | 10° C | 68% | 1014.1 hPa | 0 mm | - | 163 W/m² | - |
| 1777894597 | 10° C | 67% | 1013.9 hPa | 0 mm | - | 149 W/m² | - |
| 1777894295 | 9.44° C | 71% | 1014.2 hPa | 0 mm | - | 139 W/m² | - |
| 1777893991 | 8.89° C | 77% | 1013.9 hPa | 0 mm | - | 120 W/m² | - |
| 1777893688 | 7.78° C | 82% | 1014.2 hPa | 0 mm | - | 102 W/m² | - |
| 1777893384 | 7.22° C | 78% | 1014.3 hPa | 0 mm | - | 66 W/m² | - |
* Rain latest hour (hover to see other rain measurements)
** Current wind speed in m/s (hover to see current wind gust speed)